Time,TemperatureF,DewpointF,PressureIn,WindDirection,WindDirectionDegrees,WindSpeedMPH,WindSpeedGustMPH,Humidity,HourlyPrecipIn,Conditions,Clouds,dailyrainin,SoftwareType,DateUTC
2013-07-25 00:02:00,70.0,52.0,29.90,North,0,3.0,3.0,52,0.00,,,0.00,,2013-07-25 04:02:00,
2013-07-25 00:12:00,70.0,52.0,29.90,North,0,3.0,3.0,52,0.00,,,0.00,,2013-07-25 04:12:00,
2013-07-25 00:22:00,70.0,52.0,29.90,North,0,3.0,3.0,52,0.00,,,0.00,,2013-07-25 04:22:00,
2013-07-25 00:53:00,68.0,50.0,29.92,North,351,9.0,10.0,53,0.00,,,0.00,,2013-07-25 04:53:00,
2013-07-25 01:02:00,68.0,50.0,29.92,NE,41,5.0,11.0,52,0.00,,,0.00,,2013-07-25 05:02:00,
2013-07-25 01:32:00,68.0,50.0,29.92,NE,54,3.0,6.0,53,0.00,,,0.00,,2013-07-25 05:32:00,
2013-07-25 01:43:00,68.0,51.0,29.92,NE,46,3.0,7.0,54,0.00,,,0.00,,2013-07-25 05:43:00,
2013-07-25 01:52:00,68.0,51.0,29.92,NE,46,3.0,7.0,54,0.00,,,0.00,,2013-07-25 05:52:00,
2013-07-25 02:02:00,67.0,50.0,29.91,NE,51,10.0,15.0,55,0.00,,,0.00,,2013-07-25 06:02:00,
2013-07-25 02:12:00,67.0,50.0,29.91,NE,51,10.0,15.0,55,0.00,,,0.00,,2013-07-25 06:12:00,
2013-07-25 02:22:00,67.0,50.0,29.91,NE,51,10.0,15.0,55,0.00,,,0.00,,2013-07-25 06:22:00,
2013-07-25 02:32:00,67.0,50.0,29.91,NE,51,10.0,15.0,55,0.00,,,0.00,,2013-07-25 06:32:00,
2013-07-25 02:42:00,67.0,50.0,29.91,NE,51,10.0,15.0,55,0.00,,,0.00,,2013-07-25 06:42:00,
2013-07-25 03:02:00,66.0,50.0,29.91,NNW,338,5.0,10.0,57,0.00,,,0.00,,2013-07-25 07:02:00,
2013-07-25 03:12:00,66.0,51.0,29.91,NE,46,10.0,10.0,58,0.00,,,0.00,,2013-07-25 07:12:00,
2013-07-25 03:22:00,66.0,51.0,29.91,NNE,25,3.0,10.0,58,0.00,,,0.00,,2013-07-25 07:22:00,
2013-07-25 03:33:00,66.0,51.0,29.91,NNW,344,5.0,10.0,59,0.00,,,0.00,,2013-07-25 07:33:00,
2013-07-25 03:43:00,66.0,51.0,29.91,NE,37,5.0,10.0,58,0.00,,,0.00,,2013-07-25 07:43:00,
2013-07-25 03:53:00,66.0,51.0,29.92,North,0,3.0,10.0,58,0.00,,,0.00,,2013-07-25 07:53:00,
2013-07-25 04:02:00,66.0,51.0,29.92,North,0,3.0,10.0,58,0.00,,,0.00,,2013-07-25 08:02:00,
2013-07-25 04:12:00,66.0,51.0,29.92,North,0,3.0,10.0,58,0.00,,,0.00,,2013-07-25 08:12:00,
2013-07-25 04:22:00,66.0,51.0,29.92,North,0,3.0,10.0,58,0.00,,,0.00,,2013-07-25 08:22:00,
2013-07-25 04:32:00,66.0,51.0,29.92,NNW,335,3.0,8.0,58,0.00,,,0.00,,2013-07-25 08:32:00,
2013-07-25 04:44:00,65.0,50.0,29.92,NE,38,9.0,9.0,58,0.00,,,0.00,,2013-07-25 08:44:00,
2013-07-25 04:52:00,65.0,50.0,29.92,NE,38,9.0,9.0,58,0.00,,,0.00,,2013-07-25 08:52:00,
2013-07-25 05:02:00,65.0,50.0,29.92,NE,38,9.0,9.0,58,0.00,,,0.00,,2013-07-25 09:02:00,
2013-07-25 05:12:00,65.0,50.0,29.93,NE,41,4.0,10.0,58,0.00,,,0.00,,2013-07-25 09:12:00,
2013-07-25 05:22:00,65.0,50.0,29.93,NE,41,4.0,10.0,58,0.00,,,0.00,,2013-07-25 09:22:00,
2013-07-25 05:33:00,65.0,50.0,29.93,NE,41,4.0,10.0,58,0.00,,,0.00,,2013-07-25 09:33:00,
2013-07-25 05:43:00,65.0,49.0,29.93,North,8,6.0,8.0,57,0.00,,,0.00,,2013-07-25 09:43:00,
2013-07-25 05:52:00,65.0,49.0,29.93,North,6,4.0,10.0,57,0.00,,,0.00,,2013-07-25 09:52:00,
2013-07-25 06:03:00,65.0,49.0,29.93,North,6,4.0,10.0,57,0.00,,,0.00,,2013-07-25 10:03:00,
2013-07-25 06:12:00,65.0,49.0,29.93,North,6,4.0,10.0,57,0.00,,,0.00,,2013-07-25 10:12:00,
2013-07-25 06:32:00,64.0,48.0,29.94,North,11,3.0,9.0,56,0.00,,,0.00,,2013-07-25 10:32:00,
2013-07-25 06:43:00,64.0,48.0,29.94,North,11,3.0,9.0,56,0.00,,,0.00,,2013-07-25 10:43:00,
2013-07-25 06:53:00,64.0,47.0,29.93,North,1,3.0,4.0,55,0.00,,,0.00,,2013-07-25 10:53:00,
2013-07-25 07:12:00,64.0,47.0,29.93,North,0,4.0,4.0,55,0.00,,,0.00,,2013-07-25 11:12:00,
2013-07-25 07:22:00,64.0,47.0,29.93,North,0,4.0,4.0,55,0.00,,,0.00,,2013-07-25 11:22:00,
2013-07-25 07:32:00,64.0,47.0,29.94,NNE,27,7.0,10.0,55,0.00,,,0.00,,2013-07-25 11:32:00,
2013-07-25 07:43:00,64.0,47.0,29.94,NNE,27,7.0,10.0,55,0.00,,,0.00,,2013-07-25 11:43:00,
2013-07-25 07:44:00,64.0,48.0,29.96,NE,51,3.0,5.0,57,0.00,,,0.00,,2013-07-25 11:44:00,
2013-07-25 07:52:00,64.0,48.0,29.96,NNE,13,12.0,13.0,57,0.00,,,0.00,,2013-07-25 11:52:00,
2013-07-25 08:12:00,64.0,48.0,29.96,NE,51,3.0,5.0,57,0.00,,,0.00,,2013-07-25 12:12:00,
2013-07-25 08:23:00,64.0,48.0,29.96,NE,51,3.0,5.0,57,0.00,,,0.00,,2013-07-25 12:23:00,
2013-07-25 08:32:00,64.0,48.0,29.96,NE,51,3.0,5.0,57,0.00,,,0.00,,2013-07-25 12:32:00,
2013-07-25 08:53:00,64.0,49.0,29.98,NE,51,8.0,8.0,59,0.00,,,0.00,,2013-07-25 12:53:00,
2013-07-25 09:03:00,64.0,49.0,29.98,NE,51,8.0,8.0,59,0.00,,,0.00,,2013-07-25 13:03:00,
2013-07-25 09:33:00,64.0,50.0,29.99,North,1,2.0,10.0,60,0.00,,,0.00,,2013-07-25 13:33:00,
2013-07-25 09:53:00,65.0,51.0,30.00,NE,46,8.0,9.0,60,0.00,,,0.00,,2013-07-25 13:53:00,
2013-07-25 10:02:00,65.0,50.0,30.00,NE,51,3.0,6.0,59,0.00,,,0.00,,2013-07-25 14:02:00,
2013-07-25 10:33:00,65.0,51.0,29.99,NE,50,6.0,8.0,60,0.00,,,0.00,,2013-07-25 14:33:00,
2013-07-25 10:43:00,65.0,51.0,29.99,North,352,5.0,10.0,60,0.00,,,0.00,,2013-07-25 14:43:00,
2013-07-25 10:53:00,65.0,51.0,29.99,North,352,5.0,10.0,60,0.00,,,0.00,,2013-07-25 14:53:00,
2013-07-25 11:02:00,65.0,51.0,29.99,North,352,5.0,10.0,60,0.00,,,0.00,,2013-07-25 15:02:00,
2013-07-25 11:12:00,65.0,51.0,29.99,North,352,5.0,10.0,60,0.00,,,0.00,,2013-07-25 15:12:00,
2013-07-25 11:22:00,65.0,51.0,29.99,North,352,5.0,10.0,60,0.00,,,0.00,,2013-07-25 15:22:00,
2013-07-25 11:53:00,66.0,52.0,30.00,ENE,75,5.0,10.0,60,0.00,,,0.00,,2013-07-25 15:53:00,
2013-07-25 12:02:00,66.0,52.0,30.01,NNE,24,3.0,10.0,60,0.00,,,0.00,,2013-07-25 16:02:00,
2013-07-25 12:33:00,66.0,53.0,30.02,ENE,70,6.0,10.0,62,0.00,,,0.00,,2013-07-25 16:33:00,
2013-07-25 12:45:00,66.0,53.0,30.02,ENE,70,6.0,10.0,62,0.00,,,0.00,,2013-07-25 16:45:00,
2013-07-25 12:53:00,66.0,53.0,30.02,NNE,30,3.0,4.0,63,0.00,,,0.00,,2013-07-25 16:53:00,
2013-07-25 13:22:00,66.0,53.0,30.02,NNE,16,2.0,6.0,63,0.00,,,0.00,,2013-07-25 17:22:00,
2013-07-25 13:43:00,66.0,54.0,30.01,NE,36,1.0,13.0,65,0.00,,,0.00,,2013-07-25 17:43:00,
2013-07-25 13:53:00,67.0,54.0,30.02,NNE,17,3.0,9.0,63,0.00,,,0.00,,2013-07-25 17:53:00,
2013-07-25 14:02:00,67.0,54.0,30.02,NE,44,5.0,10.0,64,0.00,,,0.00,,2013-07-25 18:02:00,
2013-07-25 14:22:00,66.0,53.0,30.02,NNE,23,3.0,3.0,64,0.00,,,0.00,,2013-07-25 18:22:00,
2013-07-25 14:33:00,66.0,53.0,30.02,NNE,23,3.0,3.0,64,0.00,,,0.00,,2013-07-25 18:33:00,
2013-07-25 14:43:00,66.0,54.0,30.02,ENE,76,4.0,9.0,65,0.00,,,0.00,,2013-07-25 18:43:00,
2013-07-25 14:52:00,66.0,55.0,30.01,North,1,2.0,5.0,67,0.00,,,0.00,,2013-07-25 18:52:00,
2013-07-25 15:03:00,66.0,55.0,30.01,North,1,2.0,5.0,67,0.00,,,0.00,,2013-07-25 19:03:00,
2013-07-25 15:12:00,66.0,54.0,30.01,NE,43,8.0,10.0,66,0.00,,,0.00,,2013-07-25 19:12:00,
2013-07-25 15:23:00,66.0,54.0,30.01,NE,43,8.0,10.0,66,0.00,,,0.00,,2013-07-25 19:23:00,
2013-07-25 15:43:00,67.0,56.0,30.02,NE,52,4.0,10.0,67,0.00,,,0.00,,2013-07-25 19:43:00,
2013-07-25 15:52:00,67.0,56.0,30.02,NE,52,4.0,10.0,67,0.00,,,0.00,,2013-07-25 19:52:00,
2013-07-25 16:03:00,67.0,56.0,30.01,North,5,5.0,6.0,67,0.00,,,0.00,,2013-07-25 20:03:00,
2013-07-25 16:12:00,67.0,56.0,30.01,North,5,5.0,6.0,67,0.00,,,0.00,,2013-07-25 20:12:00,
2013-07-25 16:22:00,67.0,56.0,30.01,North,5,5.0,6.0,67,0.00,,,0.00,,2013-07-25 20:22:00,
2013-07-25 16:32:00,67.0,56.0,30.01,North,5,5.0,6.0,67,0.00,,,0.00,,2013-07-25 20:32:00,
2013-07-25 16:43:00,67.0,56.0,30.01,East,82,3.0,11.0,68,0.00,,,0.00,,2013-07-25 20:43:00,
2013-07-25 16:54:00,67.0,56.0,30.01,North,2,5.0,9.0,68,0.00,,,0.00,,2013-07-25 20:54:00,
2013-07-25 17:03:00,67.0,56.0,30.01,North,2,5.0,9.0,68,0.00,,,0.00,,2013-07-25 21:03:00,
2013-07-25 17:44:00,67.0,56.0,30.01,NE,36,4.0,5.0,67,0.00,,,0.00,,2013-07-25 21:44:00,
2013-07-25 17:52:00,67.0,56.0,30.01,NE,36,4.0,5.0,67,0.00,,,0.00,,2013-07-25 21:52:00,
2013-07-25 18:02:00,67.0,56.0,30.01,ESE,117,3.0,8.0,68,0.00,,,0.00,,2013-07-25 22:02:00,
2013-07-25 18:12:00,67.0,56.0,30.01,ESE,117,3.0,8.0,68,0.00,,,0.00,,2013-07-25 22:12:00,
2013-07-25 18:22:00,67.0,56.0,30.01,NE,54,5.0,10.0,68,0.00,,,0.00,,2013-07-25 22:22:00,
2013-07-25 18:32:00,67.0,56.0,30.01,NE,54,5.0,10.0,68,0.00,,,0.00,,2013-07-25 22:32:00,
2013-07-25 18:43:00,68.0,57.0,30.01,NNE,29,3.0,10.0,69,0.00,,,0.00,,2013-07-25 22:43:00,
2013-07-25 18:53:00,68.0,57.0,30.01,NNE,29,3.0,10.0,69,0.00,,,0.00,,2013-07-25 22:53:00,
2013-07-25 19:02:00,68.0,57.0,30.01,NNE,29,3.0,10.0,69,0.00,,,0.00,,2013-07-25 23:02:00,
2013-07-25 19:12:00,68.0,58.0,30.01,NE,54,3.0,5.0,70,0.00,,,0.00,,2013-07-25 23:12:00,
2013-07-25 19:22:00,68.0,58.0,30.01,NE,54,3.0,5.0,70,0.00,,,0.00,,2013-07-25 23:22:00,
2013-07-25 19:43:00,67.0,57.0,30.02,NE,39,0.0,4.0,70,0.00,,,0.00,,2013-07-25 23:43:00,
2013-07-25 19:52:00,67.0,57.0,30.02,NE,39,0.0,4.0,70,0.00,,,0.00,,2013-07-25 23:52:00,
2013-07-25 20:02:00,67.0,57.0,30.02,NE,39,0.0,4.0,70,0.00,,,0.00,,2013-07-26 00:02:00,
2013-07-25 20:22:00,67.0,57.0,30.02,NE,39,0.0,4.0,70,0.00,,,0.00,,2013-07-26 00:22:00,
2013-07-25 20:43:00,67.0,56.0,30.02,NNE,15,3.0,4.0,69,0.00,,,0.00,,2013-07-26 00:43:00,
2013-07-25 20:52:00,67.0,56.0,30.02,NNE,15,3.0,4.0,69,0.00,,,0.00,,2013-07-26 00:52:00,
2013-07-25 21:33:00,67.0,56.0,30.02,NE,51,8.0,9.0,68,0.00,,,0.00,,2013-07-26 01:33:00,
2013-07-25 21:52:00,67.0,56.0,30.01,NE,44,6.0,9.0,68,0.00,,,0.00,,2013-07-26 01:52:00,
2013-07-25 22:02:00,67.0,56.0,30.01,NE,44,6.0,9.0,68,0.00,,,0.00,,2013-07-26 02:02:00,
2013-07-25 22:12:00,67.0,56.0,30.01,NE,44,6.0,9.0,68,0.00,,,0.00,,2013-07-26 02:12:00,
2013-07-25 22:32:00,67.0,56.0,30.01,NE,39,3.0,4.0,67,0.00,,,0.00,,2013-07-26 02:32:00,
2013-07-25 22:43:00,67.0,56.0,30.01,North,11,3.0,3.0,68,0.00,,,0.00,,2013-07-26 02:43:00,
2013-07-25 22:52:00,67.0,56.0,30.02,NE,46,3.0,3.0,68,0.00,,,0.00,,2013-07-26 02:52:00,
2013-07-25 23:02:00,67.0,56.0,30.02,NE,43,2.0,7.0,68,0.00,,,0.00,,2013-07-26 03:02:00,
2013-07-25 23:32:00,68.0,57.0,30.01,NNE,12,1.0,5.0,68,0.00,,,0.00,,2013-07-26 03:32:00,
2013-07-25 23:44:00,67.0,58.0,30.01,NE,46,3.0,5.0,72,0.00,,,0.00,,2013-07-26 03:44:00,
2013-07-25 23:53:00,67.0,58.0,30.01,NE,36,5.0,8.0,72,0.00,,,0.00,,2013-07-26 03:53:00,